Regional Weather Roundup
Issued by NWS

Home | Current Version | Previous Version | Text Only | Print | Product List | Glossary Off
Versions: 1 2 3 4 5 6 7 8 9 10 11 12 13 14 15 16 17 18 19 20 21 22 23 24 25 26 27 28 29 30 31 32 33 34 35 36 37 38 39 40 41 42 43 44 45 46 47 48 49 50

704
ASUS45 KSLC 232210
RWRUT

UTAH REGIONAL WEATHER ROUNDUP
NATIONAL WEATHER SERVICE SALT LAKE CITY UT
400 PM MDT WED MAY 23 2018

UTZ001>011-023>025-232300-

NORTHERN UTAH

CITY           SKY/WX    TMP DP  RH WIND       PRES   REMARKS
BRIGHAM CITY   MOSUNNY   74  36  25 SW10G21   29.95S
DUGWAY         PTSUNNY   71  38  30 W16G24    29.97R
HILL AFB       PTSUNNY   72  39  31 S16       29.97F
LOGAN          MOSUNNY   72  42  34 S13G21    29.94S
OGDEN          MOSUNNY   73  39  29 S14       29.95S
SALT LAKE CITY PTSUNNY   63  52  67 N13       29.94F
TOOELE VALLEY  PTSUNNY   72  46  40 N7        29.94S
WENDOVER       CLOUDY    71  45  39 S16       29.96R
HEBER CITY       N/A     70  34  26 SW18G24   29.99S
WEST JORDAN    PTSUNNY   68  50  51 NE5       29.96S

$$

UTZ011>015-024>027-232300-

CENTRAL/NORTHEAST UTAH

CITY           SKY/WX    TMP DP  RH WIND       PRES   REMARKS
PROVO AIRPORT  PTSUNNY   78  41  26 S17       29.96F
MOAB/CANYONLAN SUNNY     82  17   9 SW21      29.93S
DELTA          PTSUNNY   73  32  21 W5        29.98S
PRICE          PTSUNNY   71  31  22 S7        30.03F
ROOSEVELT      CLOUDY    70  36  28 NW9       30.03F
VERNAL         PTSUNNY   69  36  29 W8        30.01F

$$

UTZ013>016-019>022-027-232300-

SOUTHERN UTAH

CITY           SKY/WX    TMP DP  RH WIND       PRES   REMARKS
BRYCE CANYON   PTSUNNY   65  29  25 SE20      30.13F
CEDAR CITY     MOSUNNY   77  29  17 SW14G25   29.99F
MILFORD        MOSUNNY   77  31  18 S8G21     29.96F
ST GEORGE      MOCLDY    85  34  16 VRB6      29.87F
HANKSVILLE     MOSUNNY   81  27  13 W8        29.95F
BLANDING         N/A     76  24  14 S17       30.13F

$$

REGIONAL REPORTS     COLORADO/ARIZONA

CITY           SKY/WX    TMP DP  RH WIND       PRES   REMARKS
CRAIG, CO      MOSUNNY   70  37  29 W14       30.03S
GRAND JUNCTION MOSUNNY   79  32  18 NW9       29.95F
RIFLE, CO      MOSUNNY   80  21  11 SW13G22   29.98S
MONTROSE, CO   MOSUNNY   80  16   9 SW18G24   30.00S
CORTEZ, CO     SUNNY     78  20  11 SW20      30.06F
COLORADO CITY    N/A     81  23  12 CALM      30.02S
PAGE, AZ       SUNNY     82  21  10 VRB7      29.94F
GRAND CANYON   SUNNY     72  18  13 W6G24     30.10F
KINGMAN, AZ    SUNNY     83  24  11 SW10G20   29.95F
FLAGSTAFF, AZ  SUNNY     68  21  16 S14G24    30.13F

$$

REGIONAL REPORTS    NEVADA/IDAHO/WYOMING

CITY           SKY/WX    TMP DP  RH WIND       PRES   REMARKS
LAS VEGAS, NV  MOSUNNY   90  31  12 VRB7      29.84F
ELY, NY        CLOUDY    62  40  44 W9        30.07R
ELKO, NV       LGT RAIN  62  50  64 S17G25    29.96R
POCATELLO, ID  PTSUNNY   68  44  42 SW15G23   29.93R
BURLEY, ID     PTSUNNY   73  47  39 S13       29.89R
FORT BRIDGER,  MOCLDY    63  38  40 W20G25    30.10S
EVANSTON, WY   CLOUDY    58  40  51 SW18G24   30.07R
ROCK SPRINGS,  CLOUDY    64  34  32 SW12G26   30.06S
KEMMERER, WY   LGT RAIN  52  41  66 S7        30.08F

$$




USA.gov is the U.S. government's official web portal to all federal, state and local government web resources and services.